Starlink 31343

operational
NORAD ID: 59093 Int'l Des: 2024-041 Owner: SPXS Country: US Constellation: starlink
LEOCIRCULAR

Über Starlink 31343

Beschreibung wird geladen...

Live-Position

3D-Globus wird geladen...

Nächste Überflüge

Höhenverlauf

Altitude vs Time

uPlot chart will show altitude changes over time

Zweizeiliger Elementsatz

1 59093U 24041V 25349.24420519 .00021233 00000-0 77876-3 0 9996
2 59093 42.9997 67.8629 0001822 273.1293 86.9350 15.27585474101401
Epoch: 15. Dez. 2025 • Age: 22 hours

Aktueller Status

Höhe 483.5 km
Geschwindigkeit 7.63 km/s
Subsatellitenpunkt -7.42°S, 87.08°W
Startdatum 29. Feb. 2024
Alter 1.7 years
Typ internet

Technische Details

Klassifizierung Payload
Masse 730.00 kg
Trockenmasse 700.00 kg
Gesamtmasse 730.00 kg
Länge 0.30 m
Durchmesser 4.10 m
Spannweite 29.00 m
Form Box + pan
Hersteller SPXS
Bus-Typ Starlink V2M
Phasenstatus In Orbit
Besitzer/Staat SPXS/US

Große Konstellationen

Loading constellations...